Back to catalog

COSMOS 1275 DEB

AlivePO
NORAD 42145·DEBRIS·🇷🇺 Russia

Launched Jun 4, 1981 from Plesetsk Cosmodrome

Loading…

Next Passes (next 24 hours)

TLE

StaleSource: Space-Track

Epoch: Sep 3, 2026, 03:54 UTC

1 42145U 81053RH  26246.16300146  .00310533  00000-0  54929-2 0  9990
2 42145  83.3429  37.5963 0004207 309.7349  50.3532 15.49181418676085

Track COSMOS 1275 DEB in real time with AllMySat

Download on the App Store